Wind_Speed
22 23 24 25 26 28 31 33 36 37 36 39 41 44 53 64 63 57 50 44 48 48 46 46 45 47 46 46 45 47 53 47 45 39 34 40 34 37 38 30 24 25 27 26 28
25 26 28 29 31 31 32 33 35 38 40 40 41 42 46 51 52 62 60 53 50 54 53 47 43 45 48 47 50 53 55 49 44 46 43 33 48 29 38 36 36 32 32 24 29
27 28 30 31 32 33 33 34 37 38 39 42 44 45 45 47 49 56 62 68 58 55 52 56 57 54 55 52 52 54 58 49 49 47 47 47 47 43 38 41 38 38 38 36 38
29 31 33 35 37 39 39 40 40 39 41 43 43 46 49 48 52 53 60 70 67 65 61 58 59 65 63 59 55 58 57 55 52 51 48 50 50 45 42 39 35 34 32 40 39
30 31 33 35 38 41 43 44 45 45 46 46 46 46 47 50 47 56 56 59 73 71 66 65 66 69 65 59 59 66 64 60 62 60 58 53 52 55 44 39 34 32 30 35 40
29 30 31 33 35 37 39 43 47 49 50 51 51 50 49 47 54 57 57 58 62 74 73 71 71 66 69 72 70 67 68 62 62 61 58 61 56 48 43 33 40 40 36 38 42
24 26 28 30 34 37 40 43 45 47 51 54 56 56 53 53 57 56 60 59 59 62 70 73 71 76 74 76 73 71 71 67 68 69 66 57 59 50 35 41 44 46 45 41 41
28 30 33 36 39 44 48 51 52 55 55 55 57 59 59 61 59 59 60 58 60 60 60 62 64 65 66 75 76 73 70 69 62 64 60 52 52 38 41 43 44 47 46 34 29
27 28 31 34 37 40 44 49 54 58 63 64 63 60 59 62 65 63 62 61 61 60 62 62 62 61 65 66 74 79 71 65 58 56 56 58 47 44 43 41 41 43 39 33 31
29 32 36 43 48 53 57 61 64 68 71 69 69 68 69 68 67 67 65 65 64 63 63 64 64 63 61 64 65 65 66 58 57 55 56 60 58 55 44 39 40 36 29 30 26
33 37 42 46 50 52 58 63 70 70 68 70 72 72 70 74 71 68 69 66 68 66 66 67 67 62 55 56 53 55 58 56 54 53 50 50 48 43 35 38 37 29 27 29 25
34 38 42 47 51 55 60 65 61 61 46 30 49 58 67 70 75 71 70 69 71 70 70 69 64 56 55 57 57 57 56 53 50 46 40 39 43 42 37 38 33 25 29 26 27
37 40 42 48 52 60 61 53 45 48 26 10 11 22 35 55 70 70 69 69 71 71 70 68 60 60 60 60 59 56 56 52 51 48 43 45 51 42 34 35 31 28 25 26 31
40 43 45 49 53 59 53 44 34 27 28 27 10 11 13 21 38 40 54 64 66 66 69 67 62 63 62 62 63 62 56 53 52 50 48 44 55 44 31 32 30 28 25 30 28
39 43 47 49 55 56 47 38 33 30 37 29 16 6 5 8 12 21 41 51 56 62 65 61 65 66 66 64 66 57 59 58 56 53 51 51 54 32 31 31 26 22 29 28 19
38 43 47 51 56 56 43 31 31 28 26 24 20 19 9 8 16 14 23 36 42 50 60 60 61 62 64 63 64 61 62 61 60 56 61 49 48 23 28 23 19 24 24 21 19
37 42 46 51 53 51 38 25 29 27 22 20 21 18 14 3 12 14 7 11 21 27 48 53 57 59 60 62 63 63 62 62 62 65 54 46 48 23 24 16 22 25 21 19 17
37 40 45 49 52 48 32 25 25 23 23 19 17 10 8 11 13 19 6 13 14 16 31 42 50 56 59 63 62 63 62 62 64 62 55 54 50 34 29 21 23 26 18 20 20
36 38 42 47 50 46 28 25 22 22 21 13 7 12 12 12 21 15 8 10 14 13 22 23 41 47 52 57 63 59 65 61 62 61 61 55 49 40 33 22 28 17 22 20 21
34 36 39 43 48 47 27 26 19 20 16 18 15 14 10 11 15 24 17 20 20 25 28 27 36 35 43 54 60 58 57 59 62 61 62 56 50 41 32 29 27 21 20 19 11
32 34 36 41 48 47 28 24 18 18 17 18 14 15 7 8 5 11 11 16 16 24 27 21 31 36 36 41 50 58 57 59 58 62 63 57 52 42 29 34 29 27 13 9 8
30 33 36 39 45 47 34 24 20 16 19 19 17 11 6 5 13 9 13 15 21 14 12 19 22 25 31 41 49 54 59 62 62 62 60 59 52 45 32 40 40 28 14 16 8
28 31 34 39 43 43 35 29 22 15 15 14 14 12 11 10 6 10 13 10 13 12 19 15 20 22 20 35 50 52 58 62 65 61 63 62 51 37 36 37 37 34 18 17 11
30 28 30 37 41 42 38 26 23 18 14 16 15 12 9 14 21 17 16 19 17 13 11 12 11 17 18 25 43 53 55 60 66 67 61 60 50 35 42 39 38 29 9 9 12
30 29 30 32 35 38 38 35 25 20 16 14 12 11 11 13 18 20 20 20 17 20 17 15 15 14 10 22 40 55 54 59 66 66 67 53 46 44 40 29 30 25 15 12 13
35 25 25 29 32 35 36 35 30 26 18 15 15 13 16 15 17 19 22 21 13 19 15 14 12 10 4 16 24 46 48 54 61 66 62 57 50 46 37 44 38 29 17 16 16
38 32 27 27 28 33 34 35 34 25 22 18 16 12 14 16 19 15 14 15 15 11 10 9 11 5 1 5 15 36 45 49 53 62 62 59 54 47 47 44 38 31 20 18 18
Wind_Direction
272 270 268 264 263 260 253 254 258 256 252 252 249 247 237 229 232 232 229 237 237 228 230 228 229 230 231 231 230 231 233 230 232 227 219 230 232 236 245 241 257 244 250 258 272
278 277 275 272 268 263 261 261 258 254 253 248 247 248 244 240 241 234 233 238 238 238 233 224 225 226 229 230 231 236 239 237 234 235 233 238 249 245 236 237 240 251 253 260 268
283 282 280 279 276 274 271 266 261 260 258 254 247 243 242 243 245 242 239 233 237 238 234 234 230 229 231 233 233 234 241 241 238 243 241 235 245 263 248 241 245 248 254 264 258
285 284 283 281 280 278 276 273 268 264 260 257 255 251 243 240 239 243 241 237 233 238 240 238 238 242 248 243 247 244 244 245 242 244 250 258 255 255 269 261 255 267 268 259 259
294 291 288 285 282 280 278 275 273 271 267 260 255 251 251 244 243 245 238 238 237 237 239 240 243 243 243 247 246 252 249 254 253 251 250 261 262 260 257 256 258 265 267 270 272
294 293 292 289 287 283 279 276 274 271 269 265 262 256 250 249 247 246 242 238 238 237 238 240 242 244 246 246 242 247 255 256 251 253 256 257 256 261 255 259 255 263 275 276 272
307 305 301 295 290 288 285 281 276 272 266 262 261 258 253 247 246 244 244 243 239 236 238 241 244 244 246 246 249 250 250 249 250 256 261 257 254 259 271 268 268 268 274 274 269
303 299 296 296 294 293 289 284 279 274 268 264 260 255 254 249 245 244 244 243 243 242 239 239 241 242 246 245 243 245 249 254 256 260 258 255 251 257 265 273 273 266 263 267 266
306 307 308 305 301 297 294 290 285 278 270 265 261 257 250 246 245 242 240 241 241 241 241 241 240 239 242 244 240 242 250 254 256 253 255 258 257 257 264 272 269 260 260 260 260
321 321 318 318 314 311 308 303 296 287 278 268 257 254 249 245 240 240 238 237 239 239 239 240 241 239 238 241 245 250 254 257 259 256 257 262 258 264 266 264 259 258 257 260 266
327 328 325 321 315 314 318 315 310 299 294 274 261 248 247 244 239 237 236 235 238 238 239 239 239 240 243 244 247 248 247 250 252 251 250 254 254 255 257 251 248 254 258 263 267
329 331 328 324 321 324 324 322 319 322 315 272 256 249 239 237 238 237 236 233 232 235 238 239 240 241 239 239 240 241 244 245 250 253 254 255 255 246 242 248 253 257 255 261 263
329 331 333 329 330 331 328 323 330 329 328 252 279 269 255 240 234 231 232 233 232 232 234 236 237 238 239 239 240 240 242 245 248 248 248 250 253 247 241 250 258 256 259 259 261
327 329 332 334 335 335 329 323 329 339 336 343 247 278 278 264 241 219 223 228 229 232 233 232 232 235 237 238 239 238 241 242 243 246 246 248 255 248 240 247 251 251 250 255 266
324 328 330 335 337 338 332 322 318 315 318 330 332 341 300 220 185 213 220 224 225 228 228 228 229 231 232 235 238 237 238 239 241 241 243 244 252 243 243 242 240 250 255 262 273
326 326 331 337 340 340 333 323 319 318 321 319 328 324 344 175 155 166 221 225 225 221 224 224 226 227 230 232 236 234 236 237 239 240 240 239 252 238 238 240 244 244 252 264 266
329 328 331 338 343 343 336 318 327 327 328 326 314 332 289 243 185 189 186 184 216 226 222 222 221 223 225 228 231 231 233 235 236 237 240 238 245 229 229 219 231 244 256 258 273
330 331 335 340 346 346 336 330 327 332 337 319 326 18 318 253 202 210 239 187 179 198 209 222 221 221 220 223 226 228 229 233 235 238 237 239 240 230 234 227 251 249 253 262 275
332 334 337 343 349 349 349 340 330 338 357 350 325 304 333 237 226 225 225 254 216 207 218 224 215 219 221 222 223 222 225 230 233 234 236 233 234 234 235 231 240 259 258 267 276
335 337 341 345 351 355 352 349 331 334 345 330 347 327 291 292 241 253 255 258 262 255 243 242 228 215 220 222 222 220 222 225 229 230 234 231 232 228 227 231 231 224 251 267 272
336 339 342 345 356 359 351 350 343 333 348 347 330 329 284 295 293 256 238 240 266 254 246 250 247 221 221 226 220 221 216 222 224 228 229 230 228 226 215 230 228 234 226 233 292
338 338 345 348 2 360 1 353 353 342 343 329 328 318 254 285 272 271 251 250 254 256 252 239 250 245 230 220 220 220 215 218 220 224 227 228 222 221 217 219 230 230 212 215 282
338 343 347 352 3 5 2 350 360 350 347 346 332 306 244 242 312 275 261 270 315 260 242 252 264 265 236 221 221 217 216 214 219 219 222 225 218 218 213 209 221 230 208 223 264
343 345 347 352 0 4 9 0 356 350 352 349 351 342 263 259 271 285 264 255 264 239 260 284 269 276 248 223 213 218 217 213 215 219 219 223 220 199 209 211 227 228 199 201 220
348 344 348 354 2 4 4 12 358 357 332 350 346 327 308 299 277 273 267 263 267 248 264 255 256 281 274 222 207 213 213 215 212 215 218 217 212 197 194 189 206 216 223 205 225
347 344 340 349 357 2 3 7 6 355 355 340 344 335 341 324 300 271 262 264 253 245 262 252 268 275 220 228 224 209 206 217 211 212 212 212 207 182 189 199 204 215 205 223 221
352 348 342 343 350 358 2 4 6 1 351 349 350 356 354 354 345 333 328 259 234 228 237 262 266 230 131 230 227 216 202 211 215 209 208 208 206 189 199 206 208 212 189 211 217
Height
5790 5790 5790 5790 5790 5790 5791 5791 5790 5791 5792 5794 5796 5797 5801 5805 5809 5812 5820 5823 5821 5824 5830 5833 5835 5836 5840 5844 5847 5845 5845 5853 5859 5864 5868 5855 5864 5867 5866 5866 5866 5870 5868 5867 5865
5785 5784 5784 5784 5783 5783 5783 5783 5782 5782 5782 5784 5786 5788 5791 5795 5797 5801 5808 5810 5814 5815 5822 5823 5826 5826 5830 5835 5836 5836 5839 5847 5854 5856 5858 5854 5858 5861 5861 5862 5862 5861 5862 5866 5865
5779 5779 5778 5777 5776 5775 5775 5774 5774 5773 5773 5774 5775 5777 5780 5783 5786 5790 5792 5799 5802 5804 5810 5811 5811 5812 5818 5825 5827 5829 5829 5842 5845 5847 5848 5847 5846 5854 5853 5856 5858 5856 5860 5857 5859
5773 5772 5770 5769 5767 5766 5766 5765 5765 5765 5764 5764 5764 5765 5767 5772 5775 5778 5780 5782 5788 5792 5797 5801 5803 5805 5810 5815 5822 5818 5821 5827 5837 5838 5839 5841 5845 5843 5843 5847 5850 5853 5853 5853 5853
5767 5764 5762 5761 5759 5757 5755 5753 5753 5753 5754 5754 5755 5756 5756 5760 5766 5758 5764 5770 5774 5779 5785 5788 5790 5794 5797 5806 5809 5808 5814 5815 5821 5828 5830 5832 5830 5836 5838 5841 5845 5844 5845 5845 5845
5759 5757 5755 5752 5749 5747 5745 5742 5741 5740 5739 5738 5739 5743 5746 5749 5745 5745 5748 5756 5759 5765 5770 5772 5777 5782 5784 5789 5794 5801 5801 5807 5808 5813 5819 5819 5823 5825 5831 5839 5836 5836 5837 5837 5836
5753 5750 5747 5744 5741 5738 5735 5732 5729 5728 5724 5724 5725 5726 5733 5735 5731 5735 5736 5742 5745 5750 5754 5759 5762 5765 5772 5775 5783 5786 5788 5793 5799 5804 5807 5812 5809 5816 5827 5826 5827 5829 5829 5829 5828
5746 5742 5738 5734 5731 5726 5722 5718 5715 5710 5708 5707 5707 5709 5716 5712 5717 5720 5721 5728 5731 5735 5741 5742 5745 5752 5757 5763 5768 5772 5776 5780 5791 5797 5801 5801 5797 5816 5816 5816 5816 5816 5817 5820 5820
5739 5734 5730 5726 5722 5716 5709 5703 5697 5691 5688 5687 5688 5692 5695 5695 5695 5701 5707 5712 5714 5719 5723 5725 5731 5739 5742 5747 5753 5759 5763 5769 5781 5788 5789 5791 5785 5801 5805 5805 5803 5803 5807 5810 5810
5732 5726 5721 5714 5707 5698 5690 5681 5673 5665 5660 5659 5661 5666 5664 5666 5672 5680 5688 5693 5697 5703 5707 5711 5715 5724 5731 5735 5740 5752 5759 5765 5768 5775 5779 5779 5773 5786 5792 5792 5791 5795 5800 5801 5803
5725 5717 5710 5703 5696 5688 5679 5665 5654 5643 5631 5620 5623 5631 5638 5636 5651 5659 5667 5676 5680 5687 5691 5696 5700 5714 5731 5733 5741 5743 5742 5748 5751 5756 5764 5765 5766 5774 5781 5779 5782 5789 5792 5793 5794
5717 5709 5702 5694 5686 5676 5664 5651 5633 5616 5606 5592 5590 5600 5603 5609 5627 5642 5648 5658 5662 5669 5674 5680 5695 5714 5715 5713 5719 5726 5731 5738 5744 5750 5756 5759 5756 5761 5767 5769 5777 5782 5784 5787 5783
5709 5702 5694 5685 5676 5665 5653 5642 5630 5615 5595 5587 5588 5587 5589 5594 5606 5618 5625 5634 5641 5647 5657 5670 5688 5692 5697 5703 5708 5716 5721 5729 5734 5740 5746 5744 5738 5750 5762 5764 5770 5772 5776 5778 5775
5703 5695 5688 5678 5669 5657 5643 5632 5624 5615 5604 5599 5591 5586 5585 5586 5589 5596 5601 5611 5622 5634 5643 5657 5672 5678 5683 5689 5693 5701 5712 5719 5722 5727 5730 5739 5725 5741 5756 5759 5761 5765 5770 5766 5768
5697 5689 5679 5671 5660 5648 5636 5625 5618 5611 5603 5597 5591 5585 5584 5583 5584 5589 5589 5593 5607 5616 5626 5654 5654 5658 5665 5674 5678 5698 5698 5702 5708 5715 5720 5722 5720 5742 5749 5751 5756 5761 5757 5759 5763
5691 5683 5673 5664 5651 5638 5626 5617 5612 5607 5599 5593 5588 5583 5585 5582 5583 5585 5586 5588 5593 5600 5617 5627 5630 5642 5655 5663 5668 5680 5684 5690 5697 5703 5700 5718 5721 5736 5741 5745 5751 5751 5750 5753 5756
5686 5677 5668 5658 5645 5630 5619 5614 5608 5601 5596 5592 5586 5582 5583 5582 5585 5581 5585 5587 5592 5597 5606 5604 5618 5630 5639 5648 5655 5663 5672 5678 5686 5685 5701 5714 5711 5730 5733 5740 5740 5740 5744 5748 5750
5681 5672 5662 5653 5640 5627 5617 5611 5604 5598 5592 5589 5585 5581 5581 5583 5582 5582 5583 5584 5587 5591 5594 5598 5612 5617 5622 5630 5639 5649 5661 5668 5674 5679 5695 5701 5702 5719 5725 5734 5733 5735 5738 5742 5744
5675 5668 5659 5648 5636 5624 5614 5606 5601 5595 5590 5587 5584 5582 5580 5579 5580 5580 5583 5582 5584 5586 5589 5592 5600 5606 5613 5617 5625 5638 5646 5657 5664 5671 5680 5692 5700 5710 5718 5727 5727 5728 5733 5736 5737
5671 5664 5655 5646 5634 5619 5611 5603 5597 5592 5589 5585 5581 5578 5577 5577 5577 5578 5581 5580 5581 5582 5584 5588 5591 5600 5602 5605 5614 5627 5638 5645 5650 5660 5669 5683 5692 5700 5713 5720 5720 5721 5727 5731 5732
5666 5659 5652 5642 5629 5618 5609 5603 5596 5591 5587 5583 5579 5577 5574 5575 5574 5574 5575 5577 5577 5576 5580 5583 5583 5592 5593 5596 5608 5615 5627 5630 5639 5649 5661 5675 5681 5696 5710 5712 5714 5717 5721 5727 5726
5661 5656 5646 5638 5627 5615 5606 5600 5595 5590 5585 5580 5576 5575 5573 5574 5572 5571 5571 5572 5572 5574 5575 5576 5576 5580 5584 5590 5595 5602 5613 5618 5626 5641 5653 5665 5674 5689 5701 5701 5705 5710 5715 5720 5721
5658 5650 5642 5633 5625 5616 5604 5597 5593 5588 5584 5580 5574 5572 5571 5570 5570 5568 5568 5568 5569 5568 5570 5571 5569 5572 5576 5580 5583 5589 5597 5607 5619 5630 5638 5649 5669 5684 5691 5691 5698 5701 5708 5715 5716
5654 5649 5641 5631 5621 5613 5606 5598 5591 5586 5582 5577 5573 5569 5568 5568 5565 5564 5563 5563 5563 5563 5564 5563 5565 5568 5568 5569 5571 5580 5588 5598 5608 5615 5635 5640 5663 5680 5682 5686 5693 5694 5702 5709 5711
5651 5644 5637 5632 5623 5614 5607 5598 5592 5588 5581 5578 5573 5569 5566 5563 5561 5559 5558 5558 5558 5559 5560 5561 5562 5562 5560 5562 5562 5570 5579 5587 5595 5608 5617 5644 5656 5671 5676 5684 5687 5689 5697 5704 5707
5648 5643 5636 5629 5623 5615 5607 5599 5592 5585 5581 5576 5572 5568 5564 5561 5558 5556 5553 5552 5554 5555 5557 5559 5560 5558 5558 5558 5561 5565 5574 5578 5587 5597 5615 5634 5647 5661 5667 5670 5676 5684 5693 5698 5702
5646 5638 5633 5627 5622 5614 5606 5599 5591 5584 5578 5574 5570 5567 5563 5559 5554 5550 5546 5545 5550 5553 5554 5556 5556 5555 5557 5557 5558 5564 5568 5575 5583 5593 5609 5623 5638 5654 5657 5665 5673 5682 5689 5694 5698